Flag for Germany Weather past 2 weeks in Bergheim, North Rhine-Westphalia, Germany

Now
54 °F

Passing clouds.


Feels Like: 48 °F
Forecast: 39 / 45 °F
Wind: 21 mph from Southwest

Location: Noervenich

Current Time: Mar 31, 2015 at 4:34:52 AM

Latest Report: Mar 31, 2015 at 3:20 AM


Visibility: N/A

Pressure: 29.39 "Hg

Humidity: 77%

Dew point: 46 °F

Location of BergheimLocation

Historic Weather in Bergheim — Graph

°F

Bergheim temperature yesterday

Maximum temperature yesterday: 50 °F (at 4:20 PM)
Minimum temperature yesterday: 43 °F (at 7:20 AM)
Average temperature yesterday: 46 °F

Past Weeks' High & Low Weather Summary

 TemperatureHumidityPressure
High63 °F (Mar 17, 4:20 PM)100% (Mar 16, 5:20 AM)30.36 "Hg (Mar 16, 5:20 AM)
Low30 °F (Mar 16, 5:20 AM)40% (Mar 26, 1:20 PM)29.33 "Hg (Mar 29, 6:20 PM)
Average44 °F79%30.01 "Hg
* Reported Mar 16 2:20 AM — Mar 31 3:20 AM, Bergheim, Weather by CustomWeather, © 2015

Note: Actual official high and low records may vary slightly from our data, if they occured in-between our weather recording intervals... More about our weather records

Advertising

Bergheim weather history for previous 24 hours

 ConditionsComfort  
Time TempWeatherWind HumidityBarometerVisibility
3:20 AM
Tue, Mar 31
54 °FPassing clouds.21 mph77%29.39 "HgN/A
2:20 AM48 °FPassing clouds.8 mph76%29.50 "HgN/A
1:20 AM45 °FPassing clouds.3 mph81%29.62 "HgN/A
12:20 AM43 °FLight rain. Passing clouds.3 mph81%29.71 "HgN/A
11:20 PM
Mon, Mar 30
45 °FPartly cloudy.6 mph66%29.74 "HgN/A
10:20 PM43 °FPartly cloudy.5 mph66%29.80 "HgN/A
9:20 PM45 °FPassing clouds.5 mph57%29.83 "HgN/A
8:20 PM43 °FPartly sunny.5 mph61%29.86 "HgN/A
7:20 PM46 °FPassing clouds.12 mph50%29.86 "HgN/A
6:20 PM48 °FPassing clouds.13 mph50%29.86 "HgN/A
5:20 PM48 °FScattered clouds.18 mph46%29.83 "HgN/A
4:20 PM50 °FBroken clouds.18 mph47%29.80 "HgN/A
3:20 PM48 °FPartly sunny.16 mph54%29.80 "HgN/A
2:20 PM46 °FPartly sunny.14 mph62%29.74 "HgN/A
1:20 PM45 °FPartly sunny.18 mph81%29.71 "HgN/A
12:47 PM45 °FSprinkles. Broken clouds.15 mph71%29.71 "HgN/A
12:20 PM45 °FSprinkles. Broken clouds.20 mph66%29.71 "HgN/A
11:20 AM46 °FScattered clouds.17 mph57%29.68 "HgN/A
10:20 AM46 °FPartly sunny.17 mph62%29.62 "HgN/A
9:20 AM45 °FBroken clouds.16 mph76%29.59 "HgN/A
8:20 AM45 °FPartly sunny.14 mph76%29.56 "HgN/A
7:20 AM43 °FPassing clouds.10 mph76%29.53 "HgN/A
6:20 AM45 °FPartly cloudy.14 mph76%29.50 "HgN/A
5:20 AM45 °FPartly cloudy.12 mph76%29.47 "HgN/A
4:20 AM46 °FPassing clouds.12 mph76%29.47 "HgN/A
Weather by CustomWeather, © 2015

See weather overviewHow to use our weather pages